Simultaneous Nadir Overpasses (SNOs) Predictions

Prediction of SNOs between NOAA-20 and TERRA Satellite Orbit:

Table of predicted SNOs for the next 14.0 days since TLE Epoch: 7/27/2024
Index Date (NOAA-20) Time (NOAA-20) Lat,Lon (NOAA-20) SZA (NOAA-20 ) Date (TERRA) Time (TERRA) Lat,Lon (TERRA) SZA (TERRA ) Distance(km) Time Diff (sec)
1 07/27/2024 15:19:11 -72.42, 122.55 126.41 07/27/2024 15:19:47 -72.41, 122.51 126.43 2.20 36
2 07/27/2024 16:09:55 72.30, -69.90 53.47 07/27/2024 16:09:09 72.31, -69.99 53.50 3.13 46
3 07/30/2024 02:31:38 -72.49, -45.70 125.75 07/30/2024 02:32:50 -72.47, -45.69 125.79 2.95 72
4 07/30/2024 03:22:22 72.38, 121.83 54.14 07/30/2024 03:22:12 72.37, 121.81 54.14 0.92 10
5 07/30/2024 04:12:53 -71.73, -69.62 126.56 07/30/2024 04:11:44 -71.81, -71.50 126.36 66.16 69
6 08/01/2024 14:34:48 72.46, -46.44 54.85 08/01/2024 14:35:13 72.45, -46.35 54.83 3.40 25
7 08/01/2024 15:25:29 -72.32, 121.15 125.30 08/01/2024 15:24:37 -72.32, 121.08 125.29 2.57 52
8 08/04/2024 01:47:14 72.50, 145.37 55.53 08/04/2024 01:48:15 72.50, 145.44 55.51 2.41 61
9 08/04/2024 02:37:56 -72.40, -47.13 124.57 08/04/2024 02:37:38 -72.42, -47.04 124.55 3.34 18
10 08/06/2024 13:50:22 -72.44, 144.68 123.85 08/06/2024 13:50:40 -72.43, 144.69 123.87 1.10 18
11 08/06/2024 14:41:06 72.35, -47.82 56.06 08/06/2024 14:40:02 72.34, -47.82 56.06 1.27 64
12 08/09/2024 01:02:48 -72.49, -23.52 123.10 08/09/2024 01:03:41 -72.47, -23.54 123.14 2.58 53
13 08/09/2024 01:53:32 72.40, 143.97 56.81 08/09/2024 01:53:02 72.42, 144.04 56.83 3.41 30



Historial Predications of SNOs between NOAA-20 and TERRA
